Location: Clarks Summit,Pa.
(41.5000°N, 75.6000°W)
Time: 02:42:21
(UTC-05:00)

Envisat - Pass Details

Date: 01 December 2021
Orbit: 764 x 766 km, 98.2° (Epoch: 18 January)

Event Time Altitude Azimuth Distance (km) Brightness Sun altitude
Rises 04:05:41 0° 26° (NNE) 3,241 6.5 -33.8°
Reaches altitude 10° 04:08:26 10° 40° (NE) 2,309 5.9 -33.3°
Maximum altitude 04:12:31 24° 94° (E) 1,548 5.2 -32.5°
Drops below altitude 10° 04:16:33 10° 147° (SSE) 2,295 5.8 -31.8°
Sets 04:19:16 0° 161° (SSE) 3,215 6.5 -31.3°
